This is the latest recevied weather packets stored in our database for station/object WB5CFT. If no packets are shown the sender has not sent any weather packets the latest 10 day(s).
| Time | Temp. | Humidity | Pressure | Rain* | Wind** | Luminosity | Snow |
|---|---|---|---|---|---|---|---|
| 1777509268 | 25° C | 34% | 1012.7 hPa | 0 mm | - | 61 W/m² | - |
| 1777508964 | 25° C | 33% | 1012.8 hPa | 0 mm | - | 60 W/m² | - |
| 1777508662 | 25.56° C | 33% | 1013 hPa | 0 mm | - | 86 W/m² | - |
| 1777508359 | 25.56° C | 33% | 1012.9 hPa | 0 mm | - | 78 W/m² | - |
| 1777508056 | 25.56° C | 33% | 1013 hPa | 0 mm | - | 86 W/m² | - |
| 1777507753 | 26.11° C | 32% | 1012.8 hPa | 0 mm | - | 114 W/m² | - |
| 1777507449 | 26.11° C | 32% | 1012.9 hPa | 0 mm | - | 143 W/m² | - |
| 1777507146 | 26.11° C | 31% | 1012.8 hPa | 0 mm | - | 103 W/m² | - |
| 1777506844 | 26.11° C | 31% | 1013.2 hPa | 0 mm | - | 135 W/m² | - |
| 1777506535 | 27.22° C | 31% | 1012.7 hPa | 0 mm | - | 142 W/m² | - |
| 1777506230 | 27.78° C | 28% | 1012.8 hPa | 0 mm | - | 167 W/m² | - |
| 1777505927 | 27.22° C | 26% | 1012.9 hPa | 0 mm | - | 177 W/m² | - |
| 1777505623 | 27.78° C | 25% | 1012.8 hPa | 0 mm | - | 152 W/m² | - |
| 1777505321 | 27.78° C | 25% | 1012.8 hPa | 0 mm | - | 212 W/m² | - |
| 1777505017 | 27.22° C | 26% | 1012.9 hPa | 0 mm | - | 154 W/m² | - |
| 1777504714 | 27.78° C | 25% | 1013 hPa | 0 mm | - | 154 W/m² | - |
| 1777504412 | 27.22° C | 25% | 1013.2 hPa | 0 mm | - | 162 W/m² | - |
| 1777504112 | 27.22° C | 24% | 1012.9 hPa | 0 mm | - | 229 W/m² | - |
| 1777503808 | 27.22° C | 25% | 1012.9 hPa | 0 mm | - | 196 W/m² | - |
| 1777503505 | 27.22° C | 24% | 1012.9 hPa | 0 mm | - | 187 W/m² | - |
| 1777503201 | 27.22° C | 26% | 1012.9 hPa | 0 mm | - | 206 W/m² | - |
| 1777502898 | 27.22° C | 26% | 1012.9 hPa | 0 mm | - | 183 W/m² | - |
| 1777502596 | 27.78° C | 26% | 1013 hPa | 0 mm | - | 191 W/m² | - |
| 1777502292 | 27.22° C | 27% | 1013.3 hPa | 0 mm | - | 220 W/m² | - |
| 1777501989 | 27.22° C | 27% | 1012.9 hPa | 0 mm | - | 251 W/m² | - |
* Rain latest hour (hover to see other rain measurements)
** Current wind speed in m/s (hover to see current wind gust speed)